Weather in Shaydurikha

Russia / Sverdlovsk Oblast     57°23′09″N   60°33′53″E
temp.,
°C
wind,
m/s
gust,
m/s
humid.,
%
clouds,
%
prec.,
mm/h
press.,
hPa
HPBL,
m
5 august, thu
thu523:00+17s279676 1.4 1012141
02:00+17s25965 0.0 100991
05:00+17nne1191100 0.0 101011
08:00+21e018574 0.0 1009106
11:00+27se235482 0.0 1008566
14:00+30se233866 0.0 10071042
17:00+30w444067 0.0 10061645
20:00+23wnw49684 0.0 1007426
6 august, fri
fri623:00+18wnw41090100 0.1 1008446
02:00+16wnw498993 0.0 1008510
05:00+16wnw488099 0.0 1008709
08:00+15wnw4885100 0.1 1008645
11:00+17nw4778100 0.1 1009662
14:00+16nw3984100 0.1 1010505
17:00+16nnw41085100 0.6 1011538
20:00+15nnw398899 0.2 1012305
7 august, sat
sat723:00+14nw3991100 0.6 1012255
02:00+13nw39895 0.0 1012220
05:00+10wnw38912 0.0 1013156
08:00+14nw49710 0.0 1013510
11:00+19nw57470 0.0 10121247
14:00+22nw57410 0.0 10121860
17:00+19nw795699 0.0 10131185
20:00+16nw4968100 0.0 10141017
8 august, sun
sun823:00+13nw4107521 0.0 1015553
02:00+11nw410880 0.0 1015452
05:00+9nw49910 0.0 1016314
08:00+12nw46752 0.0 1016402
11:00+18nw465536 0.0 1015895
14:00+22nnw464834 0.0 10151439
17:00+23nnw454975 0.0 10161698
20:00+19n227438 0.0 101745
9 august, mon
mon923:00+14nw4108134 0.0 1018252
02:00+12nw27915 0.0 1019134
05:00+10nw25955 0.0 101990
08:00+14nw2376100 0.0 1019279
11:00+19wnw235899 0.0 1018862
14:00+23nw454072 0.0 10181425
17:00+24nnw464090 0.0 10181660
20:00+19nw3763100 0.0 1018196